Location: ??????
(42.0089°N, 44.3281°E)
Time: 00:29:04
(UTC+00:00)

Cosmos 2251 Rocket - Pass Details

Date: 29 May 2022
Orbit: 764 x 791 km, 74.0° (Epoch: 03 July)

Event Time Altitude Azimuth Distance (km) Brightness Sun altitude
Rises 22:02:31 0° 350° (N) 3,249 7.8 -24.7°
Reaches altitude 10° 22:05:17 10° 3° (N) 2,322 7.0 -24.5°
Maximum altitude 22:09:41 26° 59° (ENE) 1,491 5.4 -24.3°
Drops below altitude 10° 22:14:04 10° 116° (ESE) 2,325 5.9 -24.0°
Enters shadow 22:15:04 - 122° (ESE) 2,652 6.2 -24.0°
